Location: Dompnac
(44.5644°N, 4.1026°E)
Time: 14:42:12
(UTC+00:00)

Cosmos 1891 Rocket - Pass Details

Date: 21 January 2021
Orbit: 934 x 1018 km, 82.9° (Epoch: 05 March)

Event Time Altitude Azimuth Distance (km) Brightness Sun altitude
Rises 04:57:57 0° 188° (S) 3,667 7.5 -23.8°
Reaches altitude 10° 05:00:28 10° 190° (S) 2,711 6.8 -23.3°
Maximum altitude 05:06:41 82° 278° (W) 973 4.3 -22.2°
Drops below altitude 10° 05:12:49 10° 7° (N) 2,676 6.8 -21.1°
Sets 05:15:18 0° 8° (N) 3,617 7.5 -20.7°
